Location: Bronschhofen
(47.4788°N, 9.0353°E)
Time: 18:42:37
(UTC+00:00)

ALOS - Pass Details

Date: 20 May 2022
Orbit: 682 x 683 km, 97.9° (Epoch: 06 July)

Event Time Altitude Azimuth Distance (km) Brightness Sun altitude
Rises 02:05:05 0° 24° (NNE) 3,058 7.3 -13.1°
Reaches altitude 10° 02:07:42 10° 38° (NE) 2,137 6.3 -12.8°
Maximum altitude 02:11:33 25° 93° (E) 1,373 4.3 -12.4°
Drops below altitude 10° 02:15:22 10° 149° (SSE) 2,122 4.6 -12.0°
Sets 02:17:57 0° 162° (SSE) 3,032 5.3 -11.7°
